Regional Weather Roundup
Issued by NWS Boston, MA

Home | Current Version | Previous Version | Text Only | Print | Product List | Glossary On
Versions: 1 2 3 4 5 6 7 8 9 10 11 12 13 14 15 16 17 18 19 20 21 22 23 24 25 26 27 28 29 30 31 32 33 34 35 36 37 38 39 40 41 42 43 44 45 46 47 48 49 50
000
ASUS41 KBOX 250310
RWRBOX

REGIONAL WEATHER ROUNDUP
NATIONAL WEATHER SERVICE TAUNTON MA
1100 PM EDT SAT SEP 24 2016

NOTE:  "FAIR" INDICATES FEW OR NO CLOUDS BELOW 12,000 FEET WITH NO
SIGNIFICANT WEATHER AND/OR OBSTRUCTIONS TO VISIBILITY.

MAZALL-250400-
EASTERN MASSACHUSETTS

CITY           SKY/WX    TMP DP  RH WIND       PRES   REMARKS
BOSTON         CLEAR     57  37  47 W8        30.10S
BEVERLY        CLEAR     51  38  60 W5        30.09S
LAWRENCE       CLEAR     53  39  59 W5        30.12S
BEDFORD        CLEAR     45  39  79 CALM      30.10S
BLUE HILL      NOT AVBL
NORWOOD        CLEAR     42  39  89 CALM      30.10S
MARSHFIELD     CLEAR     48  43  81 W3        30.09S
PLYMOUTH       CLEAR     47  43  86 CALM      30.10S
TAUNTON        CLEAR     41  39  93 CALM      30.10S
NEW BEDFORD    CLEAR     46  43  89 CALM      30.09F
$$

MAZALL-250400-
CAPE COD AND THE ISLANDS

CITY           SKY/WX    TMP DP  RH WIND       PRES   REMARKS
FALMOUTH       CLEAR     50  43  76 NW6       30.10S
HYANNIS        CLEAR     54  42  64 NW5       30.07S
CHATHAM        PTCLDY    50  44  80 VRB3      30.08F
PROVINCETOWN   CLEAR     60  42  51 NW15G24   30.08S
NANTUCKET      CLOUDY    57  43  59 NW8       30.08S
MARTHAS VNYRD  CLEAR     43  39  86 N6        30.09S
$$

MAZALL-250400-
CENTRAL AND WESTERN MASSACHUSETTS

CITY           SKY/WX    TMP DP  RH WIND       PRES   REMARKS
WORCESTER      CLEAR     50  36  58 NW8       30.12S
FITCHBURG      CLEAR     49  40  71 NW7       30.13S
ORANGE         CLEAR     42  42 100 CALM      30.14S
SPRINGFIELD    CLEAR     43  41  93 NE2       30.13R
WESTFIELD      CLEAR     44  43  96 CALM      30.14S
NORTH ADAMS    CLEAR     42  40  92 CALM      30.16S
PITTSFIELD     CLEAR     48  38  68 SW3       30.15S
$$

RIZALL-250400-
RHODE ISLAND

CITY           SKY/WX    TMP DP  RH WIND       PRES   REMARKS
PROVIDENCE     CLEAR     54  40  59 NW6       30.12S
NEWPORT        CLEAR     52  43  71 CALM      30.10F
BLOCK ISLAND   CLEAR     59  44  57 N8        30.12S
WESTERLY       CLEAR     50  44  80 CALM      30.13S
$$

CTZALL-250400-
CONNECTICUT

CITY           SKY/WX    TMP DP  RH WIND       PRES   REMARKS
BRADLEY INTL   PTCLDY    49  42  77 CALM      30.15R
HARTFORD       CLEAR     52  49  89 CALM      30.14R
BRIDGEPORT     CLEAR     58  43  57 NW5       30.14S
DANBURY        CLEAR     47  43  86 SW5       30.16S
GROTON         CLEAR     52  46  80 N3        30.12S
NEW HAVEN      CLEAR     51  42  71 CALM      30.14S
CHESTER        FAIR      50  43  76 CALM      30.13S
MERIDEN        CLEAR     48  43  82 CALM      30.14S
WILLIMANTIC    CLEAR     48  46  93 CALM      30.14S
OXFORD           N/A     54  37  54 NW6       30.15S
$$

MEZ002-015-021-024-NHZ003-005-008-011-012-014-VTZ005-008-250400-
NORTHERN NEW ENGLAND

CITY           SKY/WX    TMP DP  RH WIND       PRES   REMARKS
PORTLAND ME    PTCLDY    53  35  50 NW9       30.08R
BANGOR ME      PTCLDY    49  35  58 N14       30.04R
CONCORD NH     CLEAR     44  38  79 CALM      30.11S
MANCHESTER NH  CLEAR     51  38  60 CALM      30.10R
NASHUA NH      PTCLDY    46  41  82 NW6       30.12
PORTSMOUTH NH  CLEAR     53  37  55 W7        30.07S
JAFFREY NH     CLEAR     44  40  85 CALM      30.14R
KEENE NH       PTCLDY    42  41  96 CALM      30.15R
BURLINGTON VT  CLEAR     53  35  50 N7        30.16S
MT. WASHINGTON PTCLDY    25  19  80 NW55G63     N/A  WCI   3
$$

NYZ052-076-250400-
EASTERN NEW YORK

CITY           SKY/WX    TMP DP  RH WIND       PRES   REMARKS
ALBANY         CLEAR     49  40  71 CALM      30.17S
NEW YORK CITY  CLEAR     65  43  44 N7        30.14S
$$

ANZALL-250400-
MARINE OBSERVATIONS

STATION/POSITION TIME  TEMP    WIND        PRES    VSBY  WAVE
                       AIR SEA DIR/SP/G                  HT/PER
                 (UTC) (F)     (DEG/KT/KT) (MB)    (MI)  (FT/S)
BOSTON BUOY      0250   61 64  310/ 17/ 19 1018.1S         3/11
BUZZARDS BAY     0200   62     360/ 14/ 15 1019.6S
NANTUCKET SOUND  0250   63 67  320/ 17/ 21 1018.0F         1/ 3
MASS BAY-STELLWA 0204   60 61  300/ 14/ 17 1018.1R  1 7/8
ISLE OF SHOALS   0200   58     290/ 15/ 17 1018.1R
S OF BLOCK IS    0155      67                N/A           4/11
$$

......................KEY.........................
  SKY/WX - SKY CONDITION/PRESENT WEATHER
  TMP    - TEMPERATURE IN FAHRENHEIT
  DWPT   - DEWPOINT IN FAHRENHEIT
  RH     - RELATIVE HUMIDITY IN PERCENT
  WIND   - DIRECTION AND SPEED IN MPH
  PRES   - MEAN SEA LEVEL PRESSURE IN INCHES OF HG
  WCI    - WIND CHILL INDEX
  VSB    - VISIBILITY IN MILES
  HX     - HEAT INDEX
  TC     - TEMPERATURE IN CELSIUS
  VRB    - VARIABLE WIND DIRECTION
  N/A    - NOT AVAILABLE



USA.gov is the U.S. government's official web portal to all federal, state and local government web resources and services.